Погода в Рузаевке

Погода в Рузаевке : погода сейчас, прогноз погоды и архив. Всё, что Вы хотите узнать о погоде в Рузаевке!

Поиск расширенной информации на нашем сайте:

Полезная информация: Модные купальники 2016 www.marko-keyzi.ru.

Другие новости

Новости СМИ2

Главная страница сайта

Новости сайта

02.10.2013

Напоминаем, что на нашем новом сайте вы можете получить высокодетализированные прогнозы погоды по пунктам России, СНГ и мира (включающие важные для авиации метеовеличины, такие как направление и скорость ветра, видимость, явления погоды, количество и форма облачности, нижняя и верхняя граница облачности), а также ознакомиться с разнообразными материалами по авиационной метеорологии и подборкой полезных ссылок на эту тему.

Сайт Метеоцентр.Азия посвящён разработке технологий оптимизации авиаметеорологического обслуживания, включая проектирование и перспективное создание нескольких автоматизированных авиаметеорологических систем:
- система выпуска высокодетальных прогностических карт явлений погоды для нижнего воздушного пространства по России и ближнему зарубежью;
- система верификации прогнозов TAF (выпускаемых синоптиками официальных АМСГ РФ и ближнего зарубежья) и AUTOTAF (выпускаемых сайтом Метеоцентр.Азия) - выявление ошибок, онлайн-сопоставление с фактической погодой METAR, автоматическое внесение коррективов в прогнозы при резком отклонении фактической погоды от прогноза, подсчёт оправдываемости прогнозов по элементам и в целом;
- система обработки, анализа и отображения авиаметеорологической информации для применения провайдерами метеорологической информации.

Рекомендуем: Самоделкин замена и ремонт кран.

Погода в Рузаевке - сегодня

Время (UTC), дата Ветер
(°,м/с) 
Видим.   Явления Облачность Т
(°С)
Тd
(°С)
f(%) Тe
(°С)
Pmin
(гПа)
dP
(гПа)
Po
(мм)
O2
(г/м3)
Тmin Tmax R s Состояние
почвы
15 25.02.17 220 (ЮЗ) н/о  {морось}  10/10 600 м 
[St]
-2.1 -3 94 -5  1018.3  0.7  742  302    -1.2  0.0     
18 25.02.17 210 (ЮЗ) н/о  {морось}  10/10 600 м 
[Sc]
-5.4 -6.4 93 -10  1019.2  0.5  743  306    -1.2  0.0     
21 25.02.17 190 (Ю) н/о  слаб. снег  10/10 600 м 
[Sc]
-4.3 -5.5 91 -9  1018.9  -0.2  743  305           
00 26.02.17 180 (Ю) 9-16{20}  н/о  слаб. снег  10/10 600 м 
[Sc]
-2.6 -3.6 93 -8  1017.5  -1.2  742  302           
03 26.02.17 190 (Ю) 8-15{17}  20000 м  позёмок{снег}  10/10 600 м 
[Sc]
-0.9 -1.9 93 -5  1016.8  -0.5  741  300      0.2  29  равномерный
сухой снег
100% 
06 26.02.17 210 (ЮЗ) 10-18{20}  10 км  слаб. дождь{снег}  10/10 600 м 
[Ns]
+0.6 -0.2 94 -4  1016.6  741  298  -5.9    0.2     
09 26.02.17 200 (Ю) 9-16{20}  10 км  слаб. дождь  10/10 600 м 
[Ns]
+1 -0.1 92 -3  1017.3  0.7  742  298           
12 26.02.17 200 (Ю) 8-15{19}  20000 м  {дождь}  10/10 600 м 
[Sc]
+1.2 -0.5 88 -3  1018.3  743  298           
15 26.02.17 210 (ЮЗ) 9-16{17}  н/о    9/9 600 м 
[Sc]
+0.7 -2.2 81 -4  1017.9  -0.4  742  299    +1.7     
18 26.02.17 190 (Ю) 11-18{19}  н/о    10/10 600 м 
[Sc]
-1 -3.5 83 -6  1017.3  -0.8  742  300    +1.7     
21 26.02.17 190 (Ю) 13-19{23}  н/о    10/10 600 м 
[Sc]
-1.2 -4.8 76 -7  1015.2  -2.1  740  300           
00 27.02.17 170 (Ю) 12-19{20}  н/о    3/3 600 м 
[Sc]
-3.6 -6.4 81 -10  1012.6  -2.7  738  302           
03 27.02.17 160 (Ю) 12-15{20}  20000 м    8/0 средняя 
[Ac und]
-3 -6.1 79 -9  1010  -2.6  736  301        26  равномерный
мокрый или
старый снег
100% 
06 27.02.17 200 (Ю) 10  10 км  слаб. ливневой снег  8/6 600 м кучево-дожд., средняя 
[Cb calv|Ac trans]
-2 -2.9 94 -7  1010.1  0.3  736  299  -4.1         
09 27.02.17 250 (З) 6-15{16}  20000 м  позёмок{ливн. осадки}  4/4 600 м кучево-дожд. 
[Cb calv]
-2.6 -5.5 80 -7  1015.8  5.5  740  302           
12 27.02.17 230 (ЮЗ) 4{15}  20000 м  {ливн. осадки}  4/3 600 м кучево-дожд., верхняя 
[Cb calv|Ci fib]
-2.8 -5.8 80 -6  1020.9  4.9  744  304           
15 27.02.17 210 (ЮЗ) н/о    4/0 средняя, верхняя 
[Ac trans|Ci fib]
-7.3 -9 88 -12  1024.5  746  310    -1.5     
18 27.02.17 220 (ЮЗ) н/о    8/3 600 м средняя, верхняя 
[Sc|Ac trans|Ci fib]
-9.1 -10.7 88 -14  1026.3  1.6  748  313    -1.5     
21 27.02.17 200 (Ю) н/о    3/0 средняя 
[Ac trans]
-10.1 -12 86 -14  1027.4  0.9  748  314           
00 28.02.17 210 (ЮЗ) н/о    ясно 
-12.8 -14.7 86 -16  1028.4  0.7  749  318           
03 28.02.17 180 (Ю) 20000 м    6/0 средняя 
[Ac und]
-12.5 -13.9 89 -16  1028.7  0.3  749  318        27  равномерный
сухой снег
100% 
06 28.02.17 170 (Ю) 20000 м    4/0 средняя, верхняя 
[Ac trans|Ci fib]
-11 -12.9 86 -16  1029.3  0.8  750  316  -13.3         
09 28.02.17 180 (Ю) 20000 м    4/0 верхняя 
[Ci fib]
-7.7 -10.3 82 -13  1028.2  -0.7  749  312           
12 28.02.17 190 (Ю) 20000 м    3/0 средняя, верхняя 
[Ac trans|Ci fib]
-8.1 -10.8 81 -12  1027.7  -0.6  749  312           
15 28.02.17 160 (Ю) н/о    ясно 
-12.6 -14.2 88 -17  1028.1  -0.1  749  317    -7.2       
Время (UTC), дата Ветер
(°,м/с) 
Видим.   Явления Облачность Т
(°С)
Тd
(°С)
f(%) Тe
(°С)
Pmin
(гПа)
dP
(гПа)
Po
(мм)
O2
(г/м3)
Тmin Tmax R s Состояние
почвы

Для получения пояснительной информации подведите курсор к названию столбца.

ПОГОДА в Рузаевке - архив

Всё, что Вы хотите узнать о погоде в Рузаевке - удобно и подробно!

Выберите нужную дату (начиная с 1 января 2015* года) и нажмите кнопку "Найти".
Будут отображены архивные сводки погоды по пункту Рузаевка, начиная с указанной даты.


Отображать данные в формате CSV (для использования в таблицах Excel)


Внимание! Наш архив погоды предназначен исключительно для личного некоммерческого использования в познавательных целях. Если Вам необходимы официальные справки о состоянии погоды (для производственных, юридических, коммерческих и т.п. целей), обращайтесь в органы Росгидромета.

*Примечание: данная дата относится к архиву по метеостанциям СССР (Россия, СНГ, Балтия).
Архив по метеостанциям Зарубежной Европы и Азии (кроме Китая) хранится 10 дней, по другим регионам земного шара (Китай, Африка, Америка, Австралия, Океания) - 1 день.

Рузаевка - район местоположения метеостанции


Название, широта, долгота, высота метеостанции:
Рузаевка 52.8°ш. 67°д. 227 м над ур. моря [Казахстан]

Дополнительная информация

В oтличие oт бoльшинства пoгoдных сайтoв мы публикуем пoдрoбную метеoинфoрмацию в детальнoм прoфессиoнальнoм фoрмате.

Характеристики температуры и влажнoсти вoздуха измеряются на высoте 2 м в тени вдали oт зданий и деревьев.
Скoрoсть ветра измеряется на высoте 10 м (на урoвне рoста челoвека скoрoсть ветра ниже в 1.5-2 раза). Если метеoстанция нахoдится в гoрoде или в лесу, тo скoрoсть ветра занижена на 2-4 м/с пo сравнению с oткрытым местoм. Скoрoсть ветра над акватoриями крупных рек и oзёр, а также на вершинах хoлмoв на 2-5 м/с выше, чем в oбычных услoвиях.
Атмoсфернoе давление в разных тoчках местнoсти мoжет значительнo oтличаться oт давления на метеoстанции, в зависимoсти oт услoвий рельефа (при пoдъёме на 10 м давление пoнижается примернo на 1 мм рт.ст.).